Time,TemperatureF,DewpointF,PressureIn,WindDirection,WindDirectionDegrees,WindSpeedMPH,WindSpeedGustMPH,Humidity,HourlyPrecipIn,Conditions,Clouds,dailyrainin,SoftwareType,DateUTC
2013-02-18 00:01:00,40.0,37.0,29.96,WNW,290,0.0,0.0,90,0.00,,,0.00,,2013-02-18 08:01:00,
2013-02-18 00:11:00,40.0,37.0,29.96,WNW,290,0.0,0.0,90,0.00,,,0.00,,2013-02-18 08:11:00,
2013-02-18 00:21:00,40.0,37.0,29.96,WNW,290,0.0,0.0,90,0.00,,,0.00,,2013-02-18 08:21:00,
2013-02-18 00:32:00,39.0,37.0,29.96,WNW,290,0.0,0.0,91,0.00,,,0.00,,2013-02-18 08:32:00,
2013-02-18 00:42:00,39.0,37.0,29.96,WNW,290,0.0,0.0,91,0.00,,,0.00,,2013-02-18 08:42:00,
2013-02-18 00:52:00,39.0,37.0,29.96,WNW,290,0.0,0.0,91,0.00,,,0.00,,2013-02-18 08:52:00,
2013-02-18 01:02:00,38.0,36.0,29.96,WNW,290,0.0,0.0,91,0.00,,,0.00,,2013-02-18 09:02:00,
2013-02-18 01:11:00,38.0,36.0,29.96,WNW,290,0.0,0.0,91,0.00,,,0.00,,2013-02-18 09:11:00,
2013-02-18 01:22:00,38.0,36.0,29.96,WNW,290,0.0,0.0,91,0.00,,,0.00,,2013-02-18 09:22:00,
2013-02-18 01:31:00,38.0,36.0,29.96,WNW,290,0.0,0.0,91,0.00,,,0.00,,2013-02-18 09:31:00,
2013-02-18 01:41:00,38.0,36.0,29.96,WNW,290,0.0,0.0,91,0.00,,,0.00,,2013-02-18 09:41:00,
2013-02-18 01:52:00,38.0,36.0,29.96,WNW,290,0.0,0.0,91,0.00,,,0.00,,2013-02-18 09:52:00,
2013-02-18 02:01:00,37.0,35.0,29.96,WNW,290,0.0,0.0,91,0.00,,,0.00,,2013-02-18 10:01:00,
2013-02-18 02:11:00,37.0,35.0,29.96,WNW,290,0.0,0.0,91,0.00,,,0.00,,2013-02-18 10:11:00,
2013-02-18 02:21:00,37.0,35.0,29.96,WNW,290,0.0,0.0,91,0.00,,,0.00,,2013-02-18 10:21:00,
2013-02-18 02:31:00,37.0,35.0,29.95,WNW,290,0.0,0.0,92,0.00,,,0.00,,2013-02-18 10:31:00,
2013-02-18 02:41:00,37.0,35.0,29.95,WNW,290,0.0,0.0,92,0.00,,,0.00,,2013-02-18 10:41:00,
2013-02-18 02:52:00,37.0,35.0,29.95,WNW,290,0.0,0.0,92,0.00,,,0.00,,2013-02-18 10:52:00,
2013-02-18 03:01:00,37.0,35.0,29.95,WNW,290,0.0,0.0,92,0.00,,,0.00,,2013-02-18 11:01:00,
2013-02-18 03:11:00,37.0,35.0,29.95,WNW,290,0.0,0.0,92,0.00,,,0.00,,2013-02-18 11:11:00,
2013-02-18 03:21:00,37.0,35.0,29.95,WNW,290,0.0,0.0,92,0.00,,,0.00,,2013-02-18 11:21:00,
2013-02-18 03:32:00,36.0,34.0,29.94,WNW,290,0.0,0.0,92,0.00,,,0.00,,2013-02-18 11:32:00,
2013-02-18 03:41:00,36.0,34.0,29.94,WNW,290,0.0,0.0,92,0.00,,,0.00,,2013-02-18 11:41:00,
2013-02-18 03:53:00,36.0,34.0,29.94,WNW,290,0.0,0.0,92,0.00,,,0.00,,2013-02-18 11:53:00,
2013-02-18 04:01:00,36.0,34.0,29.94,WNW,290,0.0,0.0,92,0.00,,,0.00,,2013-02-18 12:01:00,
2013-02-18 04:11:00,36.0,34.0,29.94,WNW,290,0.0,0.0,92,0.00,,,0.00,,2013-02-18 12:11:00,
2013-02-18 04:22:00,36.0,34.0,29.94,WNW,290,0.0,0.0,92,0.00,,,0.00,,2013-02-18 12:22:00,
2013-02-18 04:32:00,37.0,35.0,29.93,WNW,290,0.0,0.0,92,0.00,,,0.00,,2013-02-18 12:32:00,
2013-02-18 04:42:00,37.0,35.0,29.93,WNW,290,0.0,0.0,92,0.00,,,0.00,,2013-02-18 12:42:00,
2013-02-18 04:53:00,37.0,35.0,29.93,WNW,290,0.0,0.0,92,0.00,,,0.00,,2013-02-18 12:53:00,
2013-02-18 05:02:00,38.0,36.0,29.94,WNW,290,0.0,0.0,93,0.00,,,0.00,,2013-02-18 13:02:00,
2013-02-18 05:11:00,38.0,36.0,29.94,WNW,290,0.0,0.0,93,0.00,,,0.00,,2013-02-18 13:11:00,
2013-02-18 05:22:00,38.0,36.0,29.94,WNW,290,0.0,0.0,93,0.00,,,0.00,,2013-02-18 13:22:00,
2013-02-18 05:32:00,39.0,37.0,29.94,WNW,290,0.0,0.0,93,0.00,,,0.00,,2013-02-18 13:32:00,
2013-02-18 05:41:00,39.0,37.0,29.94,WNW,290,0.0,0.0,93,0.00,,,0.00,,2013-02-18 13:41:00,
2013-02-18 05:53:00,39.0,37.0,29.94,WNW,290,0.0,0.0,93,0.00,,,0.00,,2013-02-18 13:53:00,
2013-02-18 06:02:00,39.0,37.0,29.94,WNW,290,0.0,0.0,93,0.00,,,0.00,,2013-02-18 14:02:00,
2013-02-18 06:11:00,39.0,37.0,29.94,WNW,290,0.0,0.0,93,0.00,,,0.00,,2013-02-18 14:11:00,
2013-02-18 06:33:00,40.0,38.0,29.95,WNW,290,0.0,0.0,93,0.00,,,0.00,,2013-02-18 14:33:00,
2013-02-18 06:42:00,40.0,38.0,29.95,WNW,290,0.0,0.0,93,0.00,,,0.00,,2013-02-18 14:42:00,
2013-02-18 06:53:00,40.0,38.0,29.95,WNW,290,0.0,0.0,93,0.00,,,0.00,,2013-02-18 14:53:00,
2013-02-18 07:01:00,40.0,38.0,29.95,WNW,290,0.0,0.0,93,0.00,,,0.00,,2013-02-18 15:01:00,
2013-02-18 07:11:00,40.0,38.0,29.95,WNW,290,0.0,0.0,93,0.00,,,0.00,,2013-02-18 15:11:00,
2013-02-18 07:22:00,40.0,38.0,29.95,WNW,290,0.0,0.0,93,0.00,,,0.00,,2013-02-18 15:22:00,
2013-02-18 07:31:00,40.0,38.0,29.95,WNW,290,0.0,0.0,93,0.00,,,0.00,,2013-02-18 15:31:00,
2013-02-18 07:41:00,40.0,38.0,29.95,WNW,290,0.0,0.0,93,0.00,,,0.00,,2013-02-18 15:41:00,
2013-02-18 07:52:00,40.0,38.0,29.95,WNW,290,0.0,0.0,93,0.00,,,0.00,,2013-02-18 15:52:00,
2013-02-18 08:01:00,39.0,37.0,29.96,WNW,290,0.0,0.0,92,0.00,,,0.00,,2013-02-18 16:01:00,
2013-02-18 08:12:00,39.0,37.0,29.96,WNW,290,0.0,0.0,92,0.00,,,0.00,,2013-02-18 16:12:00,
2013-02-18 08:22:00,39.0,37.0,29.96,WNW,290,0.0,0.0,92,0.00,,,0.00,,2013-02-18 16:22:00,
2013-02-18 08:32:00,39.0,37.0,29.97,WNW,290,0.0,0.0,93,0.00,,,0.00,,2013-02-18 16:32:00,
2013-02-18 08:43:00,39.0,37.0,29.97,WNW,290,0.0,0.0,93,0.00,,,0.00,,2013-02-18 16:43:00,
2013-02-18 08:52:00,39.0,37.0,29.97,WNW,290,0.0,0.0,93,0.00,,,0.00,,2013-02-18 16:52:00,
2013-02-18 09:02:00,39.0,37.0,29.97,WNW,290,0.0,0.0,93,0.00,,,0.00,,2013-02-18 17:02:00,
2013-02-18 09:33:00,42.0,40.0,29.99,WNW,290,0.0,0.0,93,0.00,,,0.00,,2013-02-18 17:33:00,
2013-02-18 09:43:00,42.0,40.0,29.99,WNW,290,0.0,0.0,93,0.00,,,0.00,,2013-02-18 17:43:00,
2013-02-18 09:52:00,42.0,40.0,29.99,WNW,290,0.0,0.0,93,0.00,,,0.00,,2013-02-18 17:52:00,
2013-02-18 10:01:00,43.0,41.0,29.99,WNW,290,0.0,0.0,93,0.00,,,0.00,,2013-02-18 18:01:00,
2013-02-18 10:11:00,43.0,41.0,29.99,WNW,290,0.0,0.0,93,0.00,,,0.00,,2013-02-18 18:11:00,
2013-02-18 10:22:00,43.0,41.0,29.99,WNW,290,0.0,0.0,93,0.00,,,0.00,,2013-02-18 18:22:00,
2013-02-18 10:32:00,44.0,42.0,29.99,WNW,290,0.0,0.0,93,0.00,,,0.00,,2013-02-18 18:32:00,
2013-02-18 10:41:00,44.0,42.0,29.99,WNW,290,0.0,0.0,93,0.00,,,0.00,,2013-02-18 18:41:00,
2013-02-18 10:52:00,44.0,42.0,29.99,WNW,290,0.0,0.0,93,0.00,,,0.00,,2013-02-18 18:52:00,
2013-02-18 11:02:00,45.0,43.0,29.99,SSE,164,0.0,0.0,92,0.00,,,0.00,,2013-02-18 19:02:00,
2013-02-18 11:11:00,45.0,43.0,29.99,SSE,164,0.0,0.0,92,0.00,,,0.00,,2013-02-18 19:11:00,
2013-02-18 11:22:00,45.0,43.0,29.99,SSE,164,0.0,0.0,92,0.00,,,0.00,,2013-02-18 19:22:00,
2013-02-18 11:32:00,47.0,44.0,29.99,SSE,164,0.0,0.0,89,0.00,,,0.00,,2013-02-18 19:32:00,
2013-02-18 11:41:00,47.0,44.0,29.99,SSE,164,0.0,0.0,89,0.00,,,0.00,,2013-02-18 19:41:00,
2013-02-18 11:52:00,47.0,44.0,29.99,SSE,164,0.0,0.0,89,0.00,,,0.00,,2013-02-18 19:52:00,
2013-02-18 12:01:00,48.0,42.0,29.98,SSE,164,0.0,1.0,81,0.00,,,0.00,,2013-02-18 20:01:00,
2013-02-18 12:11:00,48.0,42.0,29.98,SSE,164,0.0,1.0,81,0.00,,,0.00,,2013-02-18 20:11:00,
2013-02-18 12:22:00,48.0,42.0,29.98,SSE,164,0.0,1.0,81,0.00,,,0.00,,2013-02-18 20:22:00,
2013-02-18 12:32:00,48.0,41.0,29.97,SSE,154,0.0,0.0,76,0.00,,,0.00,,2013-02-18 20:32:00,
2013-02-18 12:41:00,48.0,41.0,29.97,SSE,154,0.0,0.0,76,0.00,,,0.00,,2013-02-18 20:41:00,
2013-02-18 12:53:00,48.0,41.0,29.97,SSE,154,0.0,0.0,76,0.00,,,0.00,,2013-02-18 20:53:00,
2013-02-18 13:02:00,49.0,41.0,29.96,South,179,0.0,3.0,74,0.00,,,0.00,,2013-02-18 21:02:00,
2013-02-18 13:11:00,49.0,41.0,29.96,South,179,0.0,3.0,74,0.00,,,0.00,,2013-02-18 21:11:00,
2013-02-18 13:21:00,49.0,41.0,29.96,South,179,0.0,3.0,74,0.00,,,0.00,,2013-02-18 21:21:00,
2013-02-18 13:32:00,49.0,39.0,29.96,South,177,0.0,3.0,68,0.00,,,0.00,,2013-02-18 21:32:00,
2013-02-18 13:43:00,49.0,39.0,29.96,South,177,0.0,3.0,68,0.00,,,0.00,,2013-02-18 21:43:00,
2013-02-18 13:52:00,49.0,39.0,29.96,South,177,0.0,3.0,68,0.00,,,0.00,,2013-02-18 21:52:00,
2013-02-18 14:01:00,49.0,40.0,29.94,West,266,0.0,2.0,70,0.00,,,0.00,,2013-02-18 22:01:00,
2013-02-18 14:11:00,49.0,40.0,29.94,West,266,0.0,2.0,70,0.00,,,0.00,,2013-02-18 22:11:00,
2013-02-18 14:22:00,49.0,40.0,29.94,West,266,0.0,2.0,70,0.00,,,0.00,,2013-02-18 22:22:00,
2013-02-18 14:32:00,49.0,39.0,29.93,WNW,288,1.0,3.0,68,0.00,,,0.00,,2013-02-18 22:32:00,
2013-02-18 14:43:00,49.0,39.0,29.93,WNW,288,1.0,3.0,68,0.00,,,0.00,,2013-02-18 22:43:00,
2013-02-18 14:53:00,49.0,39.0,29.93,WNW,288,1.0,3.0,68,0.00,,,0.00,,2013-02-18 22:53:00,
2013-02-18 15:01:00,49.0,39.0,29.94,WNW,288,0.0,2.0,68,0.00,,,0.00,,2013-02-18 23:01:00,
2013-02-18 15:22:00,49.0,39.0,29.94,WNW,288,0.0,2.0,68,0.00,,,0.00,,2013-02-18 23:22:00,
2013-02-18 15:32:00,48.0,38.0,29.94,SE,140,0.0,6.0,69,0.00,,,0.00,,2013-02-18 23:32:00,
2013-02-18 15:43:00,48.0,38.0,29.94,SE,140,0.0,6.0,69,0.00,,,0.00,,2013-02-18 23:43:00,
2013-02-18 15:53:00,48.0,38.0,29.94,SE,140,0.0,6.0,69,0.00,,,0.00,,2013-02-18 23:53:00,
2013-02-18 16:02:00,48.0,38.0,29.94,South,171,0.0,2.0,69,0.00,,,0.00,,2013-02-19 00:02:00,
2013-02-18 16:11:00,48.0,38.0,29.94,South,171,0.0,2.0,69,0.00,,,0.00,,2013-02-19 00:11:00,
2013-02-18 16:22:00,48.0,38.0,29.94,South,171,0.0,2.0,69,0.00,,,0.00,,2013-02-19 00:22:00,
2013-02-18 16:32:00,47.0,38.0,29.94,NNW,347,1.0,2.0,70,0.00,,,0.00,,2013-02-19 00:32:00,
2013-02-18 16:41:00,47.0,38.0,29.94,NNW,347,1.0,2.0,70,0.00,,,0.00,,2013-02-19 00:41:00,
2013-02-18 16:54:00,47.0,38.0,29.94,NNW,347,1.0,2.0,70,0.00,,,0.00,,2013-02-19 00:54:00,
2013-02-18 17:02:00,47.0,37.0,29.94,North,354,0.0,0.0,69,0.00,,,0.00,,2013-02-19 01:02:00,
2013-02-18 17:11:00,47.0,37.0,29.94,North,354,0.0,0.0,69,0.00,,,0.00,,2013-02-19 01:11:00,
2013-02-18 17:22:00,47.0,37.0,29.94,North,354,0.0,0.0,69,0.00,,,0.00,,2013-02-19 01:22:00,
2013-02-18 17:32:00,47.0,37.0,29.94,North,354,0.0,0.0,69,0.00,,,0.00,,2013-02-19 01:32:00,
2013-02-18 17:42:00,47.0,37.0,29.94,North,354,0.0,0.0,69,0.00,,,0.00,,2013-02-19 01:42:00,
2013-02-18 17:55:00,47.0,37.0,29.94,North,354,0.0,0.0,69,0.00,,,0.00,,2013-02-19 01:55:00,
2013-02-18 18:02:00,46.0,37.0,29.94,North,354,0.0,0.0,71,0.00,,,0.00,,2013-02-19 02:02:00,
2013-02-18 18:22:00,46.0,37.0,29.94,North,354,0.0,0.0,71,0.00,,,0.00,,2013-02-19 02:22:00,
2013-02-18 18:33:00,46.0,39.0,29.94,North,354,0.0,0.0,77,0.00,,,0.00,,2013-02-19 02:33:00,
2013-02-18 18:43:00,46.0,39.0,29.94,North,354,0.0,0.0,77,0.00,,,0.00,,2013-02-19 02:43:00,
2013-02-18 18:54:00,46.0,39.0,29.94,North,354,0.0,0.0,77,0.00,,,0.00,,2013-02-19 02:54:00,
2013-02-18 19:03:00,45.0,39.0,29.94,North,354,0.0,0.0,79,0.00,,,0.00,,2013-02-19 03:03:00,
2013-02-18 19:11:00,45.0,39.0,29.94,North,354,0.0,0.0,79,0.00,,,0.00,,2013-02-19 03:11:00,
2013-02-18 19:22:00,45.0,39.0,29.94,North,354,0.0,0.0,79,0.00,,,0.00,,2013-02-19 03:22:00,
2013-02-18 19:32:00,45.0,40.0,29.94,North,354,0.0,0.0,81,0.00,,,0.00,,2013-02-19 03:32:00,
2013-02-18 19:45:00,45.0,40.0,29.94,North,354,0.0,0.0,81,0.00,,,0.00,,2013-02-19 03:45:00,
2013-02-18 19:54:00,45.0,40.0,29.94,North,354,0.0,0.0,81,0.00,,,0.00,,2013-02-19 03:54:00,
2013-02-18 20:02:00,44.0,39.0,29.94,North,354,0.0,0.0,82,0.00,,,0.00,,2013-02-19 04:02:00,
2013-02-18 20:12:00,44.0,39.0,29.94,North,354,0.0,0.0,82,0.00,,,0.00,,2013-02-19 04:12:00,
2013-02-18 20:22:00,44.0,39.0,29.94,North,354,0.0,0.0,82,0.00,,,0.00,,2013-02-19 04:22:00,
2013-02-18 20:32:00,44.0,39.0,29.94,North,354,0.0,0.0,84,0.00,,,0.00,,2013-02-19 04:32:00,
2013-02-18 20:44:00,44.0,39.0,29.94,North,354,0.0,0.0,84,0.00,,,0.00,,2013-02-19 04:44:00,
2013-02-18 20:54:00,44.0,39.0,29.94,North,354,0.0,0.0,84,0.00,,,0.00,,2013-02-19 04:54:00,
2013-02-18 21:01:00,44.0,40.0,29.94,North,354,0.0,0.0,85,0.00,,,0.00,,2013-02-19 05:01:00,
2013-02-18 21:12:00,44.0,40.0,29.94,North,354,0.0,0.0,85,0.00,,,0.00,,2013-02-19 05:12:00,
2013-02-18 21:22:00,44.0,40.0,29.94,North,354,0.0,0.0,85,0.00,,,0.00,,2013-02-19 05:22:00,
2013-02-18 21:32:00,44.0,40.0,29.94,North,354,0.0,0.0,86,0.00,,,0.00,,2013-02-19 05:32:00,
2013-02-18 21:42:00,44.0,40.0,29.94,North,354,0.0,0.0,86,0.00,,,0.00,,2013-02-19 05:42:00,
2013-02-18 21:52:00,44.0,40.0,29.94,North,354,0.0,0.0,86,0.00,,,0.00,,2013-02-19 05:52:00,
2013-02-18 22:02:00,44.0,40.0,29.94,North,354,0.0,0.0,86,0.00,,,0.00,,2013-02-19 06:02:00,
2013-02-18 22:11:00,44.0,40.0,29.94,North,354,0.0,0.0,86,0.00,,,0.00,,2013-02-19 06:11:00,
2013-02-18 22:21:00,44.0,40.0,29.94,North,354,0.0,0.0,86,0.00,,,0.00,,2013-02-19 06:21:00,
2013-02-18 22:32:00,44.0,40.0,29.94,North,354,0.0,0.0,86,0.00,,,0.00,,2013-02-19 06:32:00,
2013-02-18 22:41:00,44.0,40.0,29.94,North,354,0.0,0.0,86,0.00,,,0.00,,2013-02-19 06:41:00,
2013-02-18 22:52:00,44.0,40.0,29.94,North,354,0.0,0.0,86,0.00,,,0.00,,2013-02-19 06:52:00,
2013-02-18 23:01:00,44.0,40.0,29.94,North,358,0.0,0.0,87,0.00,,,0.00,,2013-02-19 07:01:00,
2013-02-18 23:11:00,44.0,40.0,29.94,North,358,0.0,0.0,87,0.00,,,0.00,,2013-02-19 07:11:00,
2013-02-18 23:21:00,44.0,40.0,29.94,North,358,0.0,0.0,87,0.00,,,0.00,,2013-02-19 07:21:00,
2013-02-18 23:32:00,43.0,40.0,29.92,North,358,0.0,0.0,88,0.00,,,0.00,,2013-02-19 07:32:00,
2013-02-18 23:41:00,43.0,40.0,29.92,North,358,0.0,0.0,88,0.00,,,0.00,,2013-02-19 07:41:00,
2013-02-18 23:52:00,43.0,40.0,29.92,North,358,0.0,0.0,88,0.00,,,0.00,,2013-02-19 07:52:00,